Regional Weather Roundup
Issued by NWS

Home | Current Version | Previous Version | Text Only | Print | Product List | Glossary Off
Versions: 1 2 3 4 5 6 7 8 9 10 11 12 13 14 15 16 17 18 19 20 21 22 23 24 25 26 27

000
ASUS45 KBOU 290407
RWRCO

WEATHER ROUNDUP FOR COLORADO
NATIONAL WEATHER SERVICE DENVER/BOULDER CO
1000 PM MDT TUE MAR 28 2017

NOTE: "FAIR" INDICATES FEW OR NO CLOUDS BELOW 12000 FEET WITH NO
SIGNIFICANT WEATHER AND/OR OBSTRUCTIONS TO VISIBILITY.

COZ001>005-013-030-031-290500-
...NORTHWEST COLORADO...

CITY           SKY/WX    TMP DP  RH WIND       PRES   REMARKS
CRAIG          FAIR      39  30  70 N14G22    30.09R
HAYDEN         FAIR      37  27  65 SW5       30.07S
MEEKER         FAIR      39  32  76 N14       30.08R
MOUNT WERNER   NOT AVBL
STEAMBOAT SPGS FAIR      36  34  94 CALM      30.07R
WALDEN         NOT AVBL
$$

COZ006>008-011-290500-
...WEST CENTRAL VALLEYS...

CITY           SKY/WX    TMP DP  RH WIND       PRES   REMARKS
GRAND JUNCTION MOCLDY    49  34  56 N15       30.01R
MONTROSE       CLOUDY    45  35  68 NW24G32   29.98R
EAGLE          CLOUDY    43  30  61 N10       30.06R
RIFLE          MOCLDY    46  33  60 NW12      30.03R
DELTA          FAIR      50  35  55 NW14      29.95R
NUCLA          MOCLDY    45  32  61 NW14      30.00S
$$

COZ017>023-064>068-290500-
...SOUTHWEST COLORADO...

CITY           SKY/WX    TMP DP  RH WIND       PRES   REMARKS
DURANGO        FAIR      38  34  85 E3        29.84S
CORTEZ         MOCLDY    44  33  65 N7        29.91R
PAGOSA SPRINGS CLOUDY    38  37  93 CALM      29.87S
TELLURIDE      LGT SNOW  33  31  94 W23G29    29.97S WCI  20
WOLF CREEK PAS CLOUDY    23  23 100 NW14G28   29.96F WCI  11
$$

COZ009-010-012-014-032>034-037-058>063-290500-
...CENTRAL COLORADO...

CITY           SKY/WX    TMP DP  RH WIND       PRES   REMARKS
ASPEN          CLOUDY    37  32  82 VRB6G21   30.01R
BUENA VISTA    LGT RAIN  37  32  82 N8        30.00R
COPPER MTN     CLOUDY    27  21  80 MISG      30.06S
BERTHOUD PASS  SNOW      19   9  63 CALM      30.09S VSB 1/4
COTTONWOOD PAS LGT SNOW  32  32 100 E7        30.02R WCI  26
GUNNISON       FAIR      35  33  92 S5        29.95S WCI  31
KREMMLING      CLOUDY    41  32  70 N8        30.08R
LEADVILLE      FLURRIES  28  26  92 N10       30.01R WCI  19
MONARCH PASS   CLOUDY    23  23 100 NE45G54   30.03R WCI   2
SALIDA         CLOUDY    39  36  91 SE3       30.05R
SUNLIGHT       LGT SNOW N/A N/A N/A NE7       30.13R
WILKERSON PASS LGT SNOW  27  23  86 NE9G17    30.06R VSB 1   WCI  17
$$

COZ069>075-290500-
...SAN LUIS VALLEY/SANGRE DE CRISTO MOUNTAINS...

CITY           SKY/WX    TMP DP  RH WIND       PRES   REMARKS
ALAMOSA        MOCLDY    37  35  92 NW9       29.85S
LA VETA PASS   NOT AVBL
SAGUACHE       CLOUDY    41  28  60 N7        29.92R
$$

COZ035-036-038>040-290500-
...NORTHERN COLORADO FRONT RANGE...

CITY           SKY/WX    TMP DP  RH WIND       PRES   REMARKS
DENVER INTL AP LGT RAIN  39  37  92 N26G35    30.00R
DMNS CITY PARK   N/A     40  38  94 NW8G23    30.05R
AURORA         LGT RAIN  39  39 100 N20G28    30.03R FOG
FRONT RANGE AP NOT AVBL
ERIE MUNI ARPT RAIN      40  38  93 N15G25    30.05R
BOULDER MUN AP CLOUDY    41  37  87 N14G20    30.06R
CENTENNIAL     LGT RAIN  38  32  79 NW20G28   30.02R
BROOMFIELD     DRIZZLE   39  37  93 N23G35    30.05R
FORT COLLINS   LGT RAIN  39  37  93 N22       30.07F
LONGMONT       CLOUDY    43  38  81 N18G28    30.08R
$$

COZ041-046-047-076>085-087-088-290500-
...PIKES PEAK/PALMER DIVIDE AND SOUTHERN FOOTHILLS...

CITY           SKY/WX    TMP DP  RH WIND       PRES   REMARKS
COLO. SPRINGS  LGT RAIN  40  35  83 N14       29.97F
A. F. ACADEMY  NOT AVBL
SCHRIEVER AFB  LGT RAIN  36  35  96 N10       29.97F
ELLICOTT       MIX PCPN N/A N/A N/A N9        29.96F
FALCON         LGT RAIN  36  35  96 N17       29.97F
FORT CARSON    LGT RAIN  39  36  87 N25G40    29.94F
LIMON          LGT RAIN  37  37 100 E8        29.97S
MONUMENT HILL  LGT RAIN  32  32 100 NW17      30.01S VSB 1/2 WCI  21
TRINIDAD       CLOUDY    41  39  93 NE8       29.89R
$$

COZ042>045-048>051-090-091-290500-
...NORTHEAST COLORADO...

CITY           SKY/WX    TMP DP  RH WIND       PRES   REMARKS
GREELEY ARPT   CLOUDY    40  37  89 N14       30.08R
AKRON          LGT RAIN  37  36  96 NE10      30.03R
BURLINGTON     CLOUDY    39  39 100 NE16      29.99R
WRAY           NOT AVBL
STERLING       LGT RAIN  39  37  93 NE7       30.06R
HOLYOKE        RAIN      41  39  93 N6        30.06R
FORT MORGAN    LGT RAIN  38  37  94 NE15      30.05R
$$

COZ086-089-092>099-290500-
...SOUTHEAST COLORADO...

CITY           SKY/WX    TMP DP  RH WIND       PRES   REMARKS
PUEBLO         LGT RAIN  43  41  93 N16       29.86F
LA JUNTA       CLOUDY    43  41  93 NE15      29.93R FOG
LAMAR          LGT RAIN  42  40  92 NE13      29.91R FOG
SPRINGFIELD      N/A     41  41 100 NE12      29.89R
$$




USA.gov is the U.S. government's official web portal to all federal, state and local government web resources and services.